User: anonymous   Login
Location: St. Louis
(38.6270°N, 90.1994°W)
Time: 03:33:50
(UTC-05:00)
Language:

ISS - Orbit

View from above orbital plane
View from above orbital plane
View from above satellite
View from above satellite

Ground track
Ground track

The orbit data is extracted from the following two-line orbital elements,

1 25544U 98067A   21261.21668917  .00001736  00000-0  40436-4 0  9990
2 25544  51.6435 242.7338 0003204  28.6062  87.2610 15.48404854303012
Epoch (UTC): 18 September 2021 05:12:01
Eccentricity: 0.0003204
inclination: 51.6435°
perigee height: 419 km
apogee height: 423 km
right ascension of ascending node: 242.7338°
argument of perigee: 28.6062°
revolutions per day: 15.48404854
mean anomaly at epoch: 87.2610°
orbit number at epoch: 30301

The dashed part of the orbit path shows where the satellite is in the earth's shadow,  

DLR